Weather History for Shaw AFB, SC

Change the Weather History Date:

Sunday, May 19, 2013

  Actual Average Record
Temperature  
Mean Temperature 72 °F -  
Max Temperature 77 °F 81 °F 95 °F (2000)
Min Temperature 66 °F 59 °F 48 °F (2002)
Cooling Degree Days 6    
Growing Degree Days 22 (Base 50)    
Moisture  
Dew Point 67 °F    
Average Humidity 91    
Maximum Humidity 100    
Minimum Humidity 68    
Precipitation  
Precipitation 2.58 in - - ()
Sea Level Pressure  
Sea Level Pressure 30.09 in    
Wind  
Wind Speed 5 mph (SSE)    
Max Wind Speed 18 mph    
Max Gust Speed -    
Visibility 7 miles    
Events Rain , Thunderstorm    
Averages and records for this station are not official NWS values.
T = Trace of Precipitation, MM = Missing Value Source: NWS Daily Summary

Daily Weather History Graph

Daily Weather History Graph

Search for Another Location

Airport:

Trip Planner

Search our weather history database for the weather conditions in past years. The results will help you decide how hot, cold, wet, or windy it might be!

Date:

Astronomy

May. 19, 2013 Rise Set
Actual Time 6:17 AM EDT 8:19 PM EDT
Civil Twilight 5:49 AM EDT 8:47 PM EDT
Nautical Twilight 5:15 AM EDT 9:21 PM EDT
Astronomical Twilight 4:39 AM EDT 9:58 PM EDT
Moon 2:37 PM EDT (5/19) 2:23 AM EDT (5/19)
Length of Visible Light 14h 57m
Length of Day
14h 01m
Waxing Gibbous, 65% of the Moon is Illuminated
May 19
Waxing Gibbous
May 25
Full
May 31
Last Quarter
Jun 8
New
Jun 16
First Quarter

Hourly Weather History & Observations

Time (EDT) Temp. Dew Point Humidity Pressure Visibility Wind Dir Wind Speed Gust Speed Precip Events Conditions
12:53 AM 68.0 °F 68.0 °F 100% 30.11 in 10.0 mi SSE 3.5 mph - N/A   Overcast
12:58 AM 68.7 °F 67.3 °F 95% 30.11 in 10.0 mi South 2.3 mph - N/A   Mostly Cloudy
1:03 AM 68.0 °F 68.0 °F 100% 30.11 in 10.0 mi South 2.3 mph - N/A   Mostly Cloudy
1:24 AM 68.0 °F 66.2 °F 94% 30.10 in 10.0 mi SSE 1.2 mph - N/A   Light Drizzle
1:51 AM 68.0 °F 66.2 °F 94% 30.09 in 10.0 mi ESE 2.3 mph - N/A   Scattered Clouds
1:58 AM 68.7 °F 66.9 °F 94% 30.09 in 10.0 mi ESE 2.3 mph - 0.00 in   Scattered Clouds
2:08 AM 68.0 °F 68.0 °F 100% 30.09 in 10.0 mi ESE 2.3 mph - N/A   Partly Cloudy
2:28 AM 68.0 °F 68.0 °F 100% 30.09 in 10.0 mi ESE 2.3 mph - N/A   Partly Cloudy
2:33 AM 68.0 °F 68.0 °F 100% 30.08 in 9.0 mi East 2.3 mph - N/A   Partly Cloudy
2:58 AM 68.2 °F 67.5 °F 98% 30.08 in 8.0 mi NE 2.3 mph - N/A   Scattered Clouds
3:48 AM 68.0 °F 68.0 °F 100% 30.08 in 10.0 mi ESE 2.3 mph - N/A   Mostly Cloudy
3:58 AM 68.5 °F 68.2 °F 99% 30.08 in 10.0 mi ESE 3.5 mph - N/A   Mostly Cloudy
4:03 AM 68.0 °F 68.0 °F 100% 30.08 in 10.0 mi SE 2.3 mph - N/A   Mostly Cloudy
4:08 AM 68.0 °F 68.0 °F 100% 30.08 in 10.0 mi SE 2.3 mph - N/A   Mostly Cloudy
4:18 AM 68.0 °F 68.0 °F 100% 30.08 in 9.0 mi East 2.3 mph - N/A   Mostly Cloudy
4:58 AM 68.2 °F 68.0 °F 99% 30.08 in 7.0 mi ESE 2.3 mph - N/A   Mostly Cloudy
5:18 AM 68.0 °F 68.0 °F 100% 30.08 in 7.0 mi ESE 2.3 mph - N/A   Scattered Clouds
5:25 AM 68.0 °F 68.0 °F 100% 30.08 in 6.0 mi North - - N/A   Scattered Clouds
5:45 AM 68.0 °F 68.0 °F 100% 30.08 in 7.0 mi Calm Calm - N/A   Mostly Cloudy
5:50 AM 68.0 °F 68.0 °F 100% 30.08 in 7.0 mi SSW 2.3 mph - N/A   Mostly Cloudy
5:58 AM 68.0 °F 67.6 °F 99% 30.09 in 7.0 mi South 2.3 mph - N/A   Mostly Cloudy
6:03 AM 68.0 °F 68.0 °F 100% 30.09 in 7.0 mi SSW 2.3 mph - N/A   Mostly Cloudy
6:05 AM 68.0 °F 68.0 °F 100% 30.09 in 7.0 mi SSW 2.3 mph - N/A   Overcast
6:10 AM 68.0 °F 68.0 °F 100% 30.09 in 6.0 mi South 2.3 mph - N/A   Overcast
6:20 AM 68.0 °F 68.0 °F 100% 30.09 in 5.0 mi South 2.3 mph - N/A   Mostly Cloudy
6:50 AM 68.0 °F 68.0 °F 100% 30.10 in 2.5 mi SSW 3.5 mph - N/A   Scattered Clouds
6:55 AM 68.0 °F 68.0 °F 100% 30.10 in 2.0 mi SSW 4.6 mph - N/A   Mostly Cloudy
6:58 AM 67.6 °F 67.6 °F 100% 30.10 in 2.5 mi SSW 3.5 mph - N/A   Mostly Cloudy
7:03 AM 68.0 °F 68.0 °F 100% 30.11 in 3.0 mi SSW 3.5 mph - N/A   Mostly Cloudy
7:06 AM 68.0 °F 68.0 °F 100% 30.11 in 4.0 mi South 3.5 mph - N/A Rain Light Rain
7:16 AM 68.0 °F 68.0 °F 100% 30.11 in 2.5 mi South 3.5 mph - N/A Rain Light Rain
7:26 AM 69.8 °F 69.8 °F 100% 30.11 in 4.0 mi South 4.6 mph - N/A Rain Light Rain
7:31 AM 69.8 °F 69.8 °F 100% 30.11 in 6.0 mi South 4.6 mph - N/A   Light Drizzle
7:38 AM 69.8 °F 69.8 °F 100% 30.11 in 8.0 mi SSE 4.6 mph - N/A   Mostly Cloudy
7:43 AM 69.8 °F 69.8 °F 100% 30.11 in 9.0 mi SSE 3.5 mph - N/A   Scattered Clouds
7:58 AM 70.2 °F 70.2 °F 100% 30.12 in 10.0 mi South 4.6 mph - 0.01 in   Clear
8:14 AM 69.8 °F 69.8 °F 100% 30.12 in 10.0 mi South 5.8 mph - N/A   Light Drizzle
8:19 AM 69.8 °F 69.8 °F 100% 30.12 in 10.0 mi South 5.8 mph - N/A Rain Light Rain
8:29 AM 69.8 °F 68.0 °F 94% 30.13 in 10.0 mi South 6.9 mph - N/A Rain Light Rain
8:58 AM 70.5 °F 66.7 °F 88% 30.13 in 10.0 mi South 6.9 mph - 0.02 in Rain Light Rain
9:40 AM 71.6 °F 66.2 °F 83% 30.13 in 10.0 mi SSE 3.5 mph - N/A   Partly Cloudy
9:58 AM 72.5 °F 67.3 °F 84% 30.12 in 10.0 mi SSE 4.6 mph - 0.01 in   Partly Cloudy
10:53 AM 75.2 °F 66.2 °F 73% 30.12 in 10.0 mi SSE 8.1 mph - N/A   Mostly Cloudy
10:58 AM 76.1 °F 67.1 °F 74% 30.12 in 10.0 mi SE 9.2 mph - N/A   Mostly Cloudy
11:08 AM 77.0 °F 66.2 °F 69% 30.12 in 10.0 mi SSE 9.2 mph - N/A   Mostly Cloudy
11:18 AM 77.0 °F 66.2 °F 69% 30.11 in 10.0 mi South 8.1 mph - N/A   Mostly Cloudy
11:38 AM 77.0 °F 66.2 °F 69% 30.11 in 10.0 mi SSE 9.2 mph - N/A Thunderstorm Mostly Cloudy
11:46 AM 77.0 °F 66.2 °F 69% 30.10 in 10.0 mi SE 10.4 mph - N/A Thunderstorm Thunderstorm
11:56 AM 77.0 °F 66.2 °F 69% 30.10 in 10.0 mi SE 9.2 mph - N/A Thunderstorm Thunderstorm
11:58 AM 77.0 °F 66.2 °F 69% 30.10 in 10.0 mi SE 8.1 mph - N/A Thunderstorm Thunderstorm
12:03 PM 77.0 °F 66.2 °F 69% 30.10 in 10.0 mi SSE 6.9 mph - N/A Thunderstorm Thunderstorm
12:04 PM 77.0 °F 66.2 °F 69% 30.10 in 10.0 mi SE 8.1 mph - N/A Thunderstorm Thunderstorm
12:08 PM 77.0 °F 66.2 °F 69% 30.10 in 10.0 mi South 9.2 mph - N/A Rain , Thunderstorm Light Thunderstorms and Rain
12:29 PM 75.2 °F 68.0 °F 78% 30.10 in 10.0 mi SSE 8.1 mph - N/A Thunderstorm Light Drizzle
12:31 PM 75.2 °F 68.0 °F 78% 30.09 in 10.0 mi SSE 9.2 mph - N/A Thunderstorm Scattered Clouds
12:39 PM 75.2 °F 66.2 °F 73% 30.09 in 10.0 mi SSE 8.1 mph - N/A Rain Light Rain
12:58 PM 75.4 °F 67.8 °F 77% 30.08 in 10.0 mi SE 6.9 mph - 0.00 in Rain Light Rain
12:59 PM 75.2 °F 68.0 °F 78% 30.08 in 10.0 mi SE 5.8 mph - N/A   Scattered Clouds
1:19 PM 75.2 °F 66.2 °F 73% 30.07 in 10.0 mi ESE 5.8 mph - N/A Thunderstorm Thunderstorm
1:35 PM 75.2 °F 66.2 °F 73% 30.07 in 10.0 mi ENE 6.9 mph - N/A Thunderstorm Mostly Cloudy
1:40 PM 75.2 °F 66.2 °F 73% 30.08 in 10.0 mi ENE 6.9 mph - N/A Thunderstorm Thunderstorm
1:58 PM 75.0 °F 66.9 °F 76% 30.07 in 10.0 mi NNE 8.1 mph - 0.00 in Thunderstorm Thunderstorm
1:59 PM 75.2 °F 66.2 °F 73% 30.07 in 10.0 mi NNE 9.2 mph - N/A Rain , Thunderstorm Light Thunderstorms and Rain
2:18 PM 73.4 °F 68.0 °F 83% 30.05 in 4.0 mi NNW 10.4 mph - N/A Rain , Thunderstorm Rain
2:23 PM 73.4 °F 68.0 °F 83% 30.04 in 5.0 mi NNW 11.5 mph - N/A Rain Heavy Rain
2:24 PM 73.4 °F 68.0 °F 83% 30.04 in 5.0 mi NNW 11.5 mph - N/A Rain , Thunderstorm Heavy Thunderstorms and Rain
2:29 PM 71.6 °F 68.0 °F 88% 30.03 in 1.8 mi NNW 15.0 mph - N/A Rain , Thunderstorm Heavy Thunderstorms and Rain
2:34 PM 69.8 °F 64.4 °F 83% 30.05 in 1.0 mi NW 16.1 mph - N/A Rain , Thunderstorm Light Thunderstorms and Rain
2:39 PM 69.8 °F 64.4 °F 83% 30.09 in 1.0 mi WNW 13.8 mph - N/A Rain , Thunderstorm Heavy Thunderstorms and Rain
2:45 PM 68.0 °F 62.6 °F 83% 30.10 in 0.8 mi WSW 18.4 mph - N/A Rain , Thunderstorm Heavy Thunderstorms and Rain
2:50 PM 68.0 °F 60.8 °F 78% 30.09 in 0.5 mi West 10.4 mph - N/A Rain , Thunderstorm Heavy Thunderstorms and Rain
2:55 PM 68.0 °F 57.2 °F 68% 30.08 in 0.2 mi West 10.4 mph - N/A Rain , Thunderstorm Heavy Thunderstorms and Rain
2:58 PM 68.0 °F 60.8 °F 78% 30.08 in 0.2 mi West 8.1 mph - 1.35 in Rain , Thunderstorm Heavy Thunderstorms and Rain
3:03 PM 68.0 °F 62.6 °F 83% 30.08 in 0.8 mi Variable 5.8 mph - N/A Rain , Thunderstorm Heavy Thunderstorms and Rain
3:08 PM 68.0 °F 62.6 °F 83% 30.07 in 1.0 mi ESE 11.5 mph - N/A Rain , Thunderstorm Heavy Thunderstorms and Rain
3:13 PM 68.0 °F 60.8 °F 78% 30.08 in 1.0 mi SE 10.4 mph - N/A Rain , Thunderstorm Heavy Thunderstorms and Rain
3:18 PM 66.2 °F 60.8 °F 83% 30.08 in 1.5 mi SE 10.4 mph - N/A Rain , Thunderstorm Heavy Thunderstorms and Rain
3:23 PM 66.2 °F 60.8 °F 83% 30.08 in 2.0 mi SE 8.1 mph - N/A Rain , Thunderstorm Heavy Thunderstorms and Rain
3:28 PM 66.2 °F 60.8 °F 83% 30.08 in 1.8 mi SSE 8.1 mph - N/A Rain , Thunderstorm Heavy Thunderstorms and Rain
3:33 PM 66.2 °F 60.8 °F 83% 30.09 in 2.5 mi SSE 9.2 mph - N/A Rain , Thunderstorm Heavy Thunderstorms and Rain
3:38 PM 66.2 °F 62.6 °F 88% 30.10 in 2.5 mi SSW 10.4 mph - N/A Rain , Thunderstorm Heavy Thunderstorms and Rain
3:48 PM 66.2 °F 62.6 °F 88% 30.09 in 1.8 mi South 5.8 mph - N/A Rain , Thunderstorm Light Thunderstorms and Rain
3:53 PM 66.2 °F 62.6 °F 88% 30.09 in 2.5 mi SE 2.3 mph - N/A Rain , Thunderstorm Light Thunderstorms and Rain
3:54 PM 66.2 °F 62.6 °F 88% 30.09 in 2.5 mi ESE 1.2 mph - N/A Rain , Thunderstorm Light Rain
3:58 PM 66.9 °F 63.5 °F 89% 30.09 in 5.0 mi North 1.2 mph - 0.75 in Rain , Thunderstorm Heavy Rain
4:08 PM 66.2 °F 64.4 °F 94% 30.09 in 3.0 mi North 3.5 mph - N/A Rain , Thunderstorm Rain
4:18 PM 68.0 °F 64.4 °F 88% 30.08 in 4.0 mi WNW 2.3 mph - N/A Rain Rain
4:36 PM 68.0 °F 66.2 °F 94% 30.08 in 2.5 mi WNW 1.2 mph - N/A Rain , Thunderstorm Thunderstorms and Rain
4:46 PM 68.0 °F 66.2 °F 94% 30.08 in 3.0 mi Calm Calm - N/A Rain , Thunderstorm Thunderstorms and Rain
4:57 PM 68.0 °F 66.2 °F 94% 30.08 in 3.0 mi South 3.5 mph - N/A Rain Rain
4:58 PM 68.0 °F 66.2 °F 94% 30.08 in 3.0 mi South 3.5 mph - 0.21 in Rain Rain
5:58 PM 67.8 °F 67.3 °F 98% 30.07 in 5.0 mi South 5.8 mph - 0.18 in Rain Rain
6:08 PM 68.0 °F 68.0 °F 100% 30.06 in 8.0 mi SSW 5.8 mph - N/A Rain Light Rain
6:12 PM 68.0 °F 68.0 °F 100% 30.06 in 9.0 mi SSW 5.8 mph - N/A Rain Light Rain
6:22 PM 68.0 °F 68.0 °F 100% 30.06 in 10.0 mi South 6.9 mph - N/A Rain Light Rain
6:27 PM 68.0 °F 68.0 °F 100% 30.06 in 10.0 mi South 5.8 mph - N/A Rain Light Rain
6:58 PM 68.5 °F 68.2 °F 99% 30.06 in 10.0 mi ESE 3.5 mph - 0.04 in Rain Light Rain
7:01 PM 68.0 °F 68.0 °F 100% 30.06 in 9.0 mi SE 3.5 mph - N/A Rain Light Rain
7:21 PM 68.0 °F 68.0 °F 100% 30.05 in 10.0 mi ESE 2.3 mph - N/A Rain Light Rain
7:41 PM 68.0 °F 68.0 °F 100% 30.05 in 10.0 mi East 3.5 mph - N/A   Light Drizzle
7:51 PM 68.0 °F 68.0 °F 100% 30.06 in 10.0 mi East 2.3 mph - N/A   Partly Cloudy
7:55 PM 68.0 °F 68.0 °F 100% 30.06 in 10.0 mi East 3.5 mph - N/A   Light Drizzle
7:58 PM 68.7 °F 68.7 °F 100% 30.06 in 10.0 mi East 3.5 mph - 0.01 in   Light Drizzle
8:28 PM 68.0 °F 68.0 °F 100% 30.06 in 9.0 mi SE 3.5 mph - N/A   Light Drizzle
8:29 PM 68.0 °F 68.0 °F 100% 30.06 in 10.0 mi SE 4.6 mph - N/A   Mostly Cloudy
8:54 PM 68.0 °F 68.0 °F 100% 30.06 in 9.0 mi SE 3.5 mph - N/A   Overcast
8:58 PM 68.4 °F 68.4 °F 100% 30.06 in 9.0 mi SE 3.5 mph - 0.00 in   Overcast
9:03 PM 68.0 °F 68.0 °F 100% 30.06 in 10.0 mi SE 3.5 mph - N/A   Overcast
9:18 PM 68.0 °F 68.0 °F 100% 30.06 in 9.0 mi South 2.3 mph - N/A   Overcast
9:28 PM 68.0 °F 68.0 °F 100% 30.06 in 10.0 mi SSE 2.3 mph - N/A   Overcast
9:58 PM 68.2 °F 68.2 °F 100% 30.08 in 9.0 mi South 2.3 mph - N/A   Overcast
10:38 PM 68.0 °F 68.0 °F 100% 30.09 in 7.0 mi SSE 2.3 mph - N/A   Overcast
10:53 PM 68.0 °F 68.0 °F 100% 30.09 in 5.0 mi South 4.6 mph - N/A   Overcast
10:58 PM 68.5 °F 68.5 °F 100% 30.09 in 3.0 mi South 4.6 mph - N/A   Overcast
11:03 PM 68.0 °F 68.0 °F 100% 30.09 in 2.0 mi South 4.6 mph - N/A   Overcast
11:08 PM 68.0 °F 68.0 °F 100% 30.09 in 1.8 mi SSE 3.5 mph - N/A   Overcast
11:13 PM 68.0 °F 68.0 °F 100% 30.10 in 1.5 mi SSE 3.5 mph - N/A   Overcast
11:23 PM 68.0 °F 68.0 °F 100% 30.09 in 1.2 mi ESE 2.3 mph - N/A   Overcast
11:33 PM 68.0 °F 68.0 °F 100% 30.09 in 1.0 mi ESE 2.3 mph - N/A   Mist
11:53 PM 68.0 °F 68.0 °F 100% 30.09 in 1.2 mi ESE 1.2 mph - N/A   Scattered Clouds
11:58 PM 68.7 °F 68.7 °F 100% 30.09 in 1.2 mi ESE 2.3 mph - N/A   Scattered Clouds